Wind_Speed
6 6 6 6 5 4 4 3 3 3 3 4 4 3 3 3 2 2 4 5 6 6 6 6 5 5 4 4 5 5 6 6 5 5 5 6 5 4 4 5 5 5 5
7 6 6 6 5 5 4 3 4 4 3 3 3 3 3 3 3 3 4 5 5 6 6 6 5 4 4 4 5 5 6 5 5 5 6 6 5 5 5 5 5 5 5
7 7 6 5 5 5 4 4 4 4 4 4 3 3 3 3 4 4 5 5 5 6 6 5 5 4 4 4 5 6 6 6 6 5 5 6 5 5 5 5 5 5 5
7 6 6 5 5 5 4 4 4 5 5 5 4 4 4 4 5 5 5 5 6 6 5 5 4 4 3 3 4 5 6 6 6 6 5 6 5 5 5 5 5 5 5
7 7 6 5 5 5 4 4 4 5 5 6 6 6 6 5 5 5 5 5 5 5 4 4 3 3 3 3 3 4 5 6 6 6 6 5 6 6 6 6 5 5 5
7 6 6 5 5 5 5 5 4 5 5 5 6 6 6 5 5 5 5 4 4 4 3 3 3 2 2 2 2 3 4 4 5 6 5 6 6 6 6 6 6 6 6
7 6 6 6 5 5 5 4 4 4 4 5 6 6 5 5 5 4 4 3 3 2 3 2 2 2 2 2 3 3 4 5 5 7 7 6 6 7 7 7 7 7 7
7 7 6 6 5 5 5 4 4 3 5 5 6 6 5 5 5 4 4 3 2 2 2 2 2 2 3 3 3 4 5 5 5 6 7 7 7 7 8 8 8 8 9
8 7 7 7 6 6 5 5 5 5 4 4 5 5 4 4 3 3 3 2 1 1 1 2 2 2 2 3 3 4 5 6 6 7 8 8 8 8 9 9 9 9 9
9 8 7 6 7 7 6 6 6 5 4 4 4 4 4 3 2 2 2 1 1 0 0 1 2 2 2 2 3 4 5 6 6 7 8 9 9 9 9 9 9 8 8
9 9 8 7 7 7 6 6 6 5 4 4 4 4 4 3 3 2 2 1 2 1 1 2 2 3 3 3 3 4 5 6 7 7 8 9 9 9 9 10 10 9 9
10 9 9 8 7 7 6 5 5 5 4 4 4 4 3 3 3 2 2 3 3 2 2 2 3 3 3 3 3 3 5 6 7 6 7 8 8 9 10 10 10 10 9
10 10 10 9 8 7 6 6 6 5 5 5 4 4 4 4 3 3 3 3 3 3 3 2 3 3 4 3 4 4 4 5 5 5 6 7 8 9 9 9 9 9 9
9 9 10 9 8 7 6 6 6 5 5 5 5 5 5 5 5 4 4 4 4 3 3 4 4 4 4 4 4 4 4 5 5 6 5 7 7 8 9 10 9 10 10
9 9 9 9 8 8 7 6 5 5 5 5 5 5 5 5 6 5 5 5 4 4 4 4 4 4 4 5 4 4 4 4 5 6 6 6 6 8 10 10 10 10 10
9 9 9 8 8 8 8 7 6 6 5 5 5 5 5 6 7 7 6 6 5 4 4 5 5 5 5 5 5 5 5 4 4 4 5 6 6 6 8 9 10 10 10
9 8 8 8 8 8 8 7 6 6 6 5 5 5 6 7 7 7 7 7 6 5 5 5 6 6 6 5 5 5 4 4 4 5 5 5 6 6 7 8 10 10 11
8 8 8 8 7 7 7 7 6 5 5 5 5 6 6 7 7 6 7 7 6 5 6 6 7 6 6 5 5 4 4 4 4 4 4 5 6 7 8 9 10 11 11
7 8 7 8 8 7 7 6 6 6 5 5 6 6 6 6 7 6 7 7 7 6 6 7 7 7 6 6 6 6 5 5 4 5 5 6 7 7 8 9 10 11 11
7 7 7 8 8 7 6 6 6 6 5 5 5 6 6 6 7 7 6 6 7 7 7 7 7 7 7 7 7 7 6 5 5 6 6 7 7 7 7 8 10 10 10
7 7 7 8 8 7 6 6 6 6 6 5 5 6 7 7 7 7 6 7 7 7 7 8 8 8 7 7 7 7 7 7 7 7 7 8 8 8 8 9 9 10 10
7 7 7 7 8 7 7 6 6 7 7 6 6 6 7 7 7 7 7 7 8 8 9 9 9 9 8 8 8 8 8 8 8 7 8 8 9 9 10 10 10 11 11
8 8 8 8 9 9 8 8 7 7 7 7 7 7 8 7 7 8 8 8 8 9 9 10 10 9 9 9 9 9 9 9 8 8 8 9 9 10 11 11 12 12 13
8 9 9 9 9 9 9 9 8 8 8 9 9 9 9 8 8 8 9 9 9 10 10 10 10 10 10 10 10 10 10 11 10 10 9 10 11 12 12 12 13 13 14
9 10 10 10 10 10 10 9 9 10 10 10 10 10 10 10 10 9 10 10 10 10 10 11 11 11 11 11 12 12 12 12 12 12 11 12 12 12 13 15 16 16 16
9 9 10 11 11 11 11 11 10 10 10 11 11 11 11 10 11 10 11 11 11 11 12 12 12 12 12 12 12 13 13 13 13 13 13 14 15 15 15 15 17 17 18
Wind_Direction
56 51 51 49 52 53 60 78 85 90 84 101 106 119 127 137 147 168 171 172 174 175 175 173 171 174 183 187 185 190 193 199 207 212 205 197 196 197 198 198 201 209 213
55 52 52 49 53 52 60 79 85 82 86 97 109 119 130 139 129 140 153 158 162 166 168 165 173 178 190 195 193 194 199 204 209 207 203 203 204 203 206 204 205 208 216
58 54 55 52 49 55 64 78 86 84 80 85 97 110 122 132 129 132 143 148 148 150 153 150 160 171 185 190 193 195 197 211 215 207 208 205 205 211 214 205 208 210 217
57 55 57 57 52 53 67 75 87 91 81 81 82 91 107 114 122 126 129 134 135 138 139 138 144 154 172 184 192 200 203 211 211 210 214 214 215 214 206 206 207 215 222
53 50 55 62 61 62 64 61 67 78 89 89 85 88 100 110 116 116 115 123 128 132 139 143 145 159 170 188 201 199 206 209 214 216 220 223 226 223 221 216 222 225 224
50 50 52 59 63 67 71 70 63 78 91 93 93 94 97 107 114 118 119 121 134 139 148 160 165 172 182 192 198 204 208 218 224 224 226 230 233 236 232 229 228 226 226
49 51 54 55 64 75 76 69 65 75 85 96 97 95 97 101 108 118 118 123 149 148 151 169 176 202 227 218 218 219 214 222 229 233 236 235 234 234 234 232 234 234 226
48 46 49 47 53 65 70 70 75 88 78 86 90 94 98 100 103 108 114 118 133 173 185 192 214 228 238 241 237 228 223 225 230 234 238 240 237 233 235 235 237 235 229
49 47 50 50 50 55 64 67 72 79 78 85 89 92 97 100 104 100 102 106 106 162 226 234 252 258 247 252 245 237 234 238 243 240 239 239 240 240 237 234 235 237 233
50 48 48 51 55 60 66 71 70 71 80 85 81 83 84 83 87 96 86 62 15 41 229 265 279 277 276 261 245 246 249 250 250 247 247 242 238 240 236 232 229 230 230
50 49 49 58 65 64 66 67 64 66 75 73 65 66 63 54 59 70 52 27 14 20 309 298 306 297 279 273 261 259 258 253 251 253 254 243 238 239 234 232 230 228 228
47 48 51 56 60 60 61 62 58 61 70 70 63 54 48 39 41 35 16 7 10 359 330 317 319 312 286 271 271 270 268 266 259 260 254 242 234 233 232 230 230 232 232
45 47 49 51 54 57 56 54 58 62 69 70 70 56 47 41 29 11 3 351 356 353 354 350 334 319 301 287 280 273 276 277 276 264 256 238 235 234 229 226 225 228 231
46 46 50 51 51 48 52 56 57 57 60 63 64 51 42 38 29 7 350 349 354 345 344 343 336 320 306 296 289 282 287 290 286 268 257 245 240 237 232 229 227 230 235
46 47 48 49 49 47 49 51 53 50 50 50 49 46 38 29 22 13 359 348 347 337 328 328 329 321 307 309 303 302 304 302 297 277 257 255 252 238 231 230 233 232 236
41 44 45 45 44 44 46 49 51 46 39 39 42 37 27 22 15 8 2 353 346 339 336 332 324 316 310 303 300 299 298 301 304 292 264 253 254 242 226 227 236 237 240
34 37 40 39 36 36 37 40 40 39 38 39 35 25 20 16 11 5 4 1 358 353 347 337 327 322 317 304 300 302 304 306 308 297 278 261 252 243 239 239 244 244 242
25 27 30 30 28 28 30 33 33 32 30 25 20 13 9 5 3 1 1 359 359 354 348 343 336 329 325 318 311 310 307 298 298 296 284 268 259 255 253 247 247 243 244
15 16 18 17 16 17 24 31 32 30 23 14 6 359 1 4 360 356 356 356 356 352 345 338 334 330 327 324 320 315 310 303 292 293 283 275 266 261 256 251 250 247 244
4 6 8 5 3 5 14 16 14 12 9 3 355 351 352 353 351 352 352 347 347 347 340 335 331 331 329 321 315 312 308 303 297 295 277 272 272 265 257 250 245 245 246
351 355 355 357 357 358 359 0 356 353 350 347 341 341 344 343 344 342 342 340 338 339 335 331 327 327 326 319 311 304 302 299 293 290 282 274 270 265 260 254 245 244 245
342 344 346 346 346 347 345 342 338 338 338 336 337 336 336 336 335 333 333 332 332 331 330 325 325 323 322 317 309 299 298 297 296 293 286 280 272 267 265 261 258 253 251
330 330 333 337 341 342 336 327 326 329 332 332 331 329 327 325 324 325 326 327 327 326 327 325 324 320 314 308 305 303 295 295 296 293 288 282 274 270 265 264 262 260 255
321 319 318 324 333 336 332 323 320 324 326 327 324 322 318 317 319 318 318 320 321 322 323 322 322 320 315 309 306 302 298 291 291 293 289 283 278 274 270 266 264 262 261
319 316 317 323 324 323 322 320 320 320 319 317 315 314 314 312 313 314 315 314 314 314 314 315 315 316 315 311 307 303 299 295 291 288 287 286 282 278 274 271 269 266 263
319 318 317 318 319 322 321 322 320 316 315 314 312 310 310 310 310 312 312 311 312 312 313 313 311 309 310 309 307 303 300 297 293 289 287 287 286 282 280 277 272 269 265
Height
5886 5885 5884 5883 5882 5881 5881 5880 5880 5880 5879 5878 5878 5877 5877 5876 5875 5874 5873 5873 5874 5875 5876 5878 5880 5881 5881 5881 5882 5882 5883 5883 5884 5884 5884 5885 5885 5885 5886 5886 5887 5887 5888
5887 5885 5885 5884 5883 5882 5881 5881 5880 5880 5879 5879 5878 5877 5877 5876 5874 5873 5873 5873 5873 5874 5876 5878 5880 5880 5881 5881 5881 5882 5882 5883 5883 5883 5884 5884 5884 5885 5885 5886 5886 5887 5888
5887 5886 5885 5884 5883 5883 5882 5881 5881 5880 5880 5879 5878 5877 5876 5876 5874 5874 5873 5873 5874 5875 5876 5878 5879 5880 5880 5881 5881 5881 5882 5882 5883 5883 5883 5883 5884 5884 5885 5886 5886 5887 5887
5888 5887 5886 5885 5884 5883 5882 5882 5881 5881 5880 5879 5878 5876 5875 5876 5875 5875 5874 5875 5875 5876 5878 5879 5880 5880 5880 5881 5881 5881 5882 5882 5882 5882 5883 5883 5884 5884 5885 5885 5886 5886 5887
5889 5888 5886 5886 5885 5884 5883 5883 5882 5881 5880 5879 5879 5877 5876 5877 5877 5876 5877 5877 5877 5878 5879 5880 5880 5880 5880 5880 5881 5881 5881 5882 5882 5882 5882 5883 5883 5884 5884 5885 5886 5886 5887
5890 5888 5887 5886 5886 5885 5884 5883 5883 5882 5881 5880 5880 5879 5879 5878 5878 5878 5878 5878 5879 5879 5880 5880 5880 5880 5880 5880 5880 5880 5881 5881 5881 5881 5882 5882 5883 5883 5884 5885 5885 5886 5886
5891 5889 5888 5887 5886 5886 5885 5884 5883 5882 5881 5881 5881 5881 5880 5880 5880 5880 5880 5879 5879 5880 5880 5880 5880 5880 5880 5880 5880 5880 5880 5880 5880 5880 5881 5881 5882 5882 5883 5883 5884 5885 5885
5891 5890 5889 5888 5887 5886 5885 5884 5883 5882 5882 5881 5881 5881 5881 5881 5881 5881 5880 5880 5880 5880 5880 5880 5879 5879 5879 5879 5879 5879 5879 5879 5879 5879 5879 5880 5881 5881 5882 5882 5883 5884 5884
5892 5891 5890 5888 5888 5887 5886 5885 5884 5883 5883 5882 5882 5882 5882 5882 5881 5881 5881 5881 5880 5880 5879 5879 5879 5879 5878 5878 5878 5878 5878 5878 5878 5877 5878 5878 5879 5880 5880 5881 5882 5882 5883
5893 5892 5890 5889 5888 5887 5887 5886 5885 5885 5884 5883 5883 5882 5882 5882 5882 5881 5881 5881 5880 5880 5879 5879 5878 5878 5877 5877 5877 5877 5876 5876 5876 5876 5876 5877 5877 5878 5879 5879 5880 5881 5882
5894 5893 5891 5890 5889 5888 5887 5887 5886 5885 5884 5884 5884 5883 5883 5883 5882 5882 5881 5881 5880 5880 5879 5879 5878 5878 5877 5876 5876 5875 5875 5875 5874 5874 5874 5875 5875 5876 5877 5877 5878 5879 5880
5896 5894 5892 5891 5890 5889 5888 5887 5887 5886 5885 5885 5884 5884 5884 5883 5883 5882 5881 5881 5880 5879 5879 5878 5878 5877 5876 5876 5875 5874 5874 5873 5872 5872 5873 5873 5873 5874 5875 5876 5877 5878 5879
5897 5895 5893 5892 5891 5890 5889 5888 5887 5886 5886 5885 5885 5885 5884 5884 5883 5882 5882 5881 5880 5879 5879 5878 5877 5876 5875 5875 5874 5873 5873 5872 5871 5871 5871 5871 5871 5872 5872 5874 5875 5876 5877
5898 5896 5895 5893 5892 5891 5890 5889 5888 5887 5887 5886 5886 5885 5885 5884 5884 5883 5882 5881 5880 5879 5878 5877 5877 5876 5875 5874 5872 5872 5871 5870 5870 5869 5869 5869 5868 5869 5870 5871 5873 5874 5875
5899 5898 5896 5894 5893 5892 5891 5890 5889 5888 5887 5887 5886 5885 5885 5884 5884 5883 5882 5881 5880 5879 5878 5877 5876 5875 5874 5873 5871 5871 5870 5869 5868 5867 5867 5867 5866 5866 5867 5869 5871 5872 5873
5901 5899 5897 5896 5894 5893 5892 5890 5889 5888 5888 5887 5886 5886 5885 5884 5883 5882 5882 5881 5879 5878 5877 5876 5875 5874 5873 5872 5871 5870 5869 5868 5867 5866 5865 5865 5865 5865 5866 5868 5869 5870 5871
5902 5900 5898 5897 5895 5894 5892 5891 5890 5889 5888 5887 5887 5886 5885 5884 5883 5882 5881 5880 5879 5878 5877 5876 5875 5874 5872 5871 5870 5869 5868 5867 5866 5865 5865 5865 5865 5865 5866 5867 5868 5868 5869
5903 5901 5900 5898 5896 5894 5893 5892 5891 5890 5889 5888 5887 5886 5885 5884 5883 5882 5881 5880 5879 5878 5877 5876 5874 5873 5872 5871 5869 5868 5868 5867 5866 5865 5865 5864 5864 5865 5865 5866 5866 5867 5868
5904 5902 5900 5899 5897 5895 5894 5892 5891 5890 5889 5888 5887 5886 5885 5884 5883 5882 5881 5880 5878 5877 5876 5875 5874 5872 5871 5870 5869 5867 5867 5866 5865 5864 5864 5863 5863 5863 5864 5864 5864 5865 5865
5904 5902 5901 5899 5897 5895 5894 5893 5892 5890 5889 5888 5887 5886 5885 5884 5883 5881 5880 5879 5878 5877 5876 5874 5873 5871 5870 5869 5868 5867 5866 5865 5864 5864 5863 5862 5862 5862 5862 5862 5862 5862 5862
5904 5902 5900 5899 5897 5896 5894 5893 5892 5890 5889 5888 5887 5885 5884 5883 5882 5881 5880 5879 5877 5876 5875 5873 5872 5870 5869 5868 5867 5866 5865 5864 5863 5862 5862 5861 5861 5861 5860 5860 5859 5860 5860
5904 5902 5900 5899 5897 5895 5894 5892 5891 5890 5888 5887 5886 5885 5883 5882 5881 5880 5879 5878 5876 5875 5873 5872 5871 5869 5868 5867 5866 5865 5864 5863 5862 5861 5860 5860 5859 5859 5858 5858 5858 5858 5858
5903 5902 5900 5898 5897 5895 5893 5892 5891 5889 5888 5886 5885 5884 5882 5881 5880 5879 5878 5876 5875 5873 5872 5870 5869 5868 5867 5865 5864 5863 5862 5861 5860 5859 5858 5858 5857 5857 5856 5856 5856 5855 5855
5902 5901 5899 5898 5896 5894 5893 5891 5890 5889 5887 5885 5884 5882 5881 5879 5878 5877 5876 5874 5873 5872 5870 5869 5867 5866 5865 5863 5862 5861 5860 5859 5858 5857 5856 5855 5854 5854 5853 5853 5853 5852 5852
5901 5899 5898 5896 5895 5893 5891 5890 5888 5887 5885 5884 5882 5880 5879 5877 5876 5875 5874 5872 5871 5870 5868 5867 5865 5864 5863 5861 5860 5859 5857 5856 5855 5854 5853 5852 5851 5850 5850 5849 5848 5848 5848
5900 5898 5896 5895 5893 5892 5890 5888 5887 5885 5883 5882 5880 5878 5877 5875 5874 5872 5871 5870 5868 5867 5865 5864 5863 5861 5860 5859 5857 5856 5854 5853 5852 5851 5850 5849 5848 5847 5846 5845 5844 5844 5844